Theta_e
297 297 298 297 297 297 297 297 297 297 298 299 299 303 307 310 310 310 311 313 313 315 318 316 315 318 317 315 315 315 315 314 313 312 312 311 311 311 310 311 311 311 312 314 314 315 315 314 316 318 316 317 316 311 312 314 314 317 318 313 313 320 322 318 319 318 316 315 313 312 312 314 315 313 313 317 315 317 326 328 325 323 317 318 322 322 325
297 297 297 297 297 297 296 297 297 298 298 299 299 303 307 309 310 309 310 313 315 316 317 316 317 319 316 312 313 314 313 312 312 311 311 309 310 312 312 312 312 311 313 312 311 312 314 313 314 317 317 316 315 312 313 315 317 317 316 314 315 316 316 317 319 316 314 318 321 320 317 315 313 313 314 314 313 319 321 319 325 325 316 319 326 322 322
297 297 297 297 297 296 296 297 297 298 299 299 300 304 307 309 310 307 306 309 312 311 311 311 313 315 315 313 312 312 312 311 311 310 310 308 308 311 312 311 310 312 315 315 312 312 314 314 314 316 317 315 312 312 312 312 315 316 313 314 315 315 318 323 325 319 316 320 324 325 321 315 313 313 314 314 316 318 315 316 328 325 313 318 326 321 320
297 297 297 297 297 296 296 296 297 298 299 300 302 306 308 309 310 308 307 307 307 307 307 309 310 311 312 312 310 310 311 311 309 309 309 308 307 308 308 308 311 316 316 317 315 313 314 314 314 314 316 315 310 311 314 314 313 315 313 311 317 322 320 322 327 325 321 319 318 317 317 314 312 311 313 315 317 319 320 322 325 323 318 317 317 317 319
297 297 297 297 297 296 296 296 297 298 301 302 303 305 306 307 307 307 307 307 306 306 307 308 309 310 311 310 309 308 308 309 310 309 309 308 308 309 307 305 311 315 315 317 317 314 314 314 313 312 313 315 313 309 311 312 313 315 311 309 320 329 319 314 319 318 313 314 312 309 311 311 309 311 314 315 317 322 327 320 314 318 323 316 311 316 319
296 297 297 297 297 297 296 296 296 298 301 303 304 305 305 305 305 304 305 307 308 308 307 308 308 307 308 308 308 308 308 308 309 309 309 307 308 311 310 305 305 307 311 317 317 314 316 315 313 312 311 314 317 313 310 309 308 311 311 310 320 328 317 310 314 312 308 310 309 307 309 308 308 313 316 315 317 321 320 314 311 317 322 315 310 314 315
296 296 297 297 297 296 296 296 296 298 302 305 305 305 304 304 304 304 305 306 307 306 306 306 306 305 307 308 306 307 308 308 306 307 311 310 307 309 309 305 303 303 307 314 313 311 315 314 311 311 311 312 314 314 313 310 306 310 315 312 314 320 317 312 314 312 308 308 308 308 309 309 310 312 312 312 314 315 315 312 311 313 314 311 310 312 310
296 296 297 296 296 296 296 296 296 297 301 305 305 305 303 303 303 303 304 303 303 303 304 305 305 305 306 306 305 305 306 307 305 304 309 310 307 308 308 305 303 303 304 308 308 306 309 310 309 309 311 313 312 310 310 309 305 310 317 313 310 314 314 315 320 318 309 307 309 310 311 310 312 312 311 311 312 313 313 312 311 311 310 307 309 312 310
296 296 297 296 296 296 296 296 296 296 299 303 304 304 303 303 303 303 304 302 301 302 303 304 305 305 304 304 304 304 304 305 306 305 305 306 306 307 307 305 304 304 304 305 305 304 304 306 307 307 308 310 309 308 309 307 306 311 315 312 314 318 313 314 323 320 310 308 309 309 311 311 312 313 311 311 312 312 310 308 308 310 310 309 311 312 309
295 296 296 296 296 296 296 297 297 295 297 300 303 303 303 303 303 302 303 303 300 300 301 303 305 305 304 303 303 303 303 303 306 308 305 303 304 305 305 305 306 305 305 305 304 302 302 304 304 304 305 305 305 306 307 306 305 308 312 312 315 321 317 313 318 317 311 310 310 312 314 313 312 312 309 307 308 307 306 305 304 306 308 311 312 308 305
295 296 296 296 296 296 296 297 297 296 296 299 302 304 303 303 302 301 302 304 300 298 300 302 303 304 303 302 302 303 303 303 305 307 305 303 303 302 301 304 308 307 304 303 303 302 303 304 304 304 304 304 305 305 305 307 305 305 310 312 312 319 321 316 317 318 311 311 313 315 315 312 310 308 307 307 307 305 305 305 303 303 305 307 306 305 304
295 296 296 296 296 296 295 296 297 297 297 298 301 303 303 303 302 300 301 303 300 298 301 302 300 301 302 301 302 303 303 303 303 303 304 303 302 302 301 302 305 305 302 302 303 303 304 305 305 306 305 304 304 304 304 308 308 303 305 311 313 317 318 314 317 319 311 311 316 316 312 310 307 305 305 306 304 302 303 303 302 303 304 304 304 304 303
295 296 296 296 296 296 295 295 297 297 297 298 300 303 302 302 302 300 300 302 300 298 301 301 299 300 301 300 301 301 301 302 302 302 302 302 301 301 301 301 301 302 302 302 303 303 306 308 310 309 307 307 309 308 305 307 309 304 303 307 312 317 317 312 312 313 309 310 315 313 308 306 306 305 304 304 303 304 305 304 303 303 304 303 303 302 300
295 295 296 296 296 296 295 295 296 297 298 297 299 301 302 302 302 301 301 302 300 297 299 301 300 300 300 300 300 301 301 301 302 302 302 301 301 301 301 301 301 301 302 302 302 303 307 312 314 312 310 311 312 310 307 305 306 307 306 305 307 313 316 313 309 309 310 311 309 307 306 306 306 306 305 303 304 305 307 306 302 301 301 301 301 301 299
295 295 296 296 295 295 295 295 296 297 297 297 298 300 301 300 301 302 301 301 301 299 299 300 300 300 299 299 300 301 303 302 302 303 302 300 301 301 300 301 301 301 303 302 302 306 310 311 312 310 309 309 308 308 308 306 304 305 305 304 306 309 311 311 309 307 310 312 308 305 308 308 308 309 306 303 302 302 303 305 303 300 299 299 299 300 298
295 295 295 295 295 295 295 295 296 296 297 297 298 299 300 299 299 300 299 300 302 301 299 298 298 299 299 299 299 300 302 303 303 304 305 302 301 301 301 301 301 302 303 301 302 309 314 311 309 310 307 306 306 306 307 307 306 305 305 305 307 308 310 313 312 308 307 310 310 308 308 307 307 308 306 301 300 300 302 307 305 299 298 298 298 297 297
295 295 295 295 295 295 295 295 296 296 297 296 297 299 300 299 299 299 298 298 299 299 298 298 298 299 299 299 300 299 300 301 301 302 304 302 300 300 300 300 301 301 302 303 305 309 311 309 308 309 306 304 306 307 306 307 309 307 307 308 310 311 312 312 311 309 308 310 309 306 306 305 305 305 304 300 299 300 304 310 306 298 297 298 298 297 298
295 295 295 295 295 294 295 295 296 297 297 296 297 298 299 299 299 299 298 297 298 298 297 298 298 298 298 299 299 299 299 299 299 301 302 301 299 300 300 299 300 300 301 305 308 307 306 305 305 306 305 303 305 307 306 307 308 306 307 309 309 309 310 309 308 308 309 310 308 304 304 305 303 302 301 298 299 302 306 308 303 297 297 298 298 298 299
295 295 295 295 295 294 294 295 296 297 297 296 296 297 299 299 298 298 298 298 298 298 297 297 298 298 298 298 298 298 298 298 299 301 303 302 300 299 299 300 300 299 300 304 306 304 304 304 302 303 304 303 303 306 305 304 304 303 304 307 307 306 307 307 306 306 307 307 305 303 304 303 300 300 300 299 302 305 304 301 299 297 298 298 298 299 299
295 295 295 295 295 295 294 295 296 297 297 297 296 296 298 299 298 298 298 298 298 298 297 298 298 297 297 298 297 298 298 298 299 300 301 301 300 300 303 304 301 299 300 303 304 302 302 303 302 302 303 301 302 305 305 303 301 300 302 304 303 303 306 306 304 303 304 305 304 304 304 301 298 300 301 300 302 302 299 298 298 298 298 298 298 299 298
295 295 295 295 295 295 295 295 296 297 297 296 295 296 297 299 299 299 298 298 298 298 298 298 297 297 297 298 297 297 297 298 298 299 299 299 299 301 304 303 300 299 299 300 301 300 299 300 301 300 300 301 301 302 302 304 303 299 300 302 301 301 305 306 303 302 304 304 302 301 301 298 298 300 300 299 299 299 298 298 299 298 298 298 299 299 299
295 295 295 295 295 295 295 295 296 297 297 296 295 295 297 298 299 299 298 298 298 298 297 297 297 297 297 297 297 297 297 297 297 298 298 299 298 299 300 299 298 299 298 298 300 300 299 299 300 300 300 300 300 299 300 303 303 299 299 301 300 300 301 302 301 300 300 301 300 298 298 298 298 299 298 298 298 298 298 299 298 298 299 298 298 298 298
295 295 295 296 295 295 296 296 296 297 297 296 295 295 297 298 299 299 298 298 297 298 298 297 297 297 297 297 297 297 297 297 297 297 297 298 298 298 298 298 299 299 298 298 299 299 298 298 299 300 300 299 299 300 301 301 300 299 299 299 298 297 297 299 299 298 298 298 298 297 298 298 298 298 298 298 298 298 298 298 298 298 298 298 298 298 298
295 295 295 296 295 295 295 296 297 297 297 297 296 295 296 298 298 299 299 298 297 297 298 297 297 297 297 297 297 297 296 297 297 297 297 297 297 298 298 299 299 298 298 299 298 297 298 298 298 300 300 298 299 301 301 300 299 299 300 301 300 298 298 298 299 299 299 299 297 297 298 298 298 298 298 298 298 298 298 298 298 298 298 298 298 298 297
296 295 295 295 296 295 295 296 297 297 297 298 298 296 296 297 298 299 299 299 298 298 298 297 297 297 297 296 296 296 296 297 297 297 297 297 297 298 298 298 298 298 298 298 298 298 298 297 298 301 301 298 298 300 299 299 299 299 300 302 300 298 298 299 299 300 300 299 297 297 297 297 297 298 298 298 298 298 297 297 297 297 298 298 297 297 297
295 295 295 295 296 296 295 295 297 298 298 298 298 297 295 295 297 298 299 299 298 298 298 298 297 297 297 297 296 296 296 296 297 296 296 297 297 297 298 298 298 298 298 298 298 298 298 297 298 301 301 298 298 299 299 297 297 298 299 299 297 298 298 298 297 298 298 298 297 297 297 296 297 297 298 298 297 297 297 297 297 297 297 297 297 297 297
295 295 295 296 296 296 296 295 295 297 299 299 299 298 295 294 295 297 297 298 298 298 299 299 298 297 297 296 296 296 296 296 296 296 296 297 297 296 297 297 297 297 297 298 298 297 297 297 298 299 298 297 297 298 297 296 296 298 299 297 297 298 299 297 297 299 300 299 298 297 297 297 297 297 297 297 297 297 297 297 297 297 297 297 297 297 296
295 295 295 296 297 297 296 295 295 296 297 298 299 299 296 293 293 295 295 296 298 298 298 298 298 298 297 297 296 296 296 296 297 296 296 296 296 296 296 296 296 297 297 297 297 297 297 297 297 297 297 297 298 297 296 296 298 299 299 298 297 298 298 298 300 302 301 299 298 297 297 298 297 297 297 297 297 297 297 297 297 296 296 296 296 295 295
296 295 295 297 297 297 296 295 296 296 296 297 298 299 297 294 292 293 294 296 297 297 297 298 298 298 298 297 296 296 296 296 297 296 296 296 296 296 296 296 296 297 297 297 297 297 297 296 296 296 297 297 298 298 297 297 299 299 298 297 297 297 297 297 298 299 298 297 297 297 297 297 297 297 297 297 297 297 297 296 296 296 295 295 295 294 294
296 295 295 297 298 297 295 295 296 296 295 296 297 298 298 295 293 293 293 294 296 296 297 297 298 298 298 297 297 296 296 296 297 296 297 296 296 296 296 296 296 296 297 297 297 296 296 296 295 296 297 296 296 297 297 297 298 298 297 297 297 297 297 297 297 297 298 297 297 297 297 297 297 297 297 297 297 296 296 296 295 295 295 294 294 293 293
296 296 295 297 298 297 295 295 297 297 296 296 296 296 296 296 295 294 293 294 295 296 296 297 298 298 297 297 297 297 296 297 297 297 297 297 297 297 296 295 296 296 296 296 296 295 295 295 295 296 297 296 296 298 299 298 298 297 297 297 297 297 297 297 297 297 297 297 297 297 297 297 297 297 297 297 296 296 296 295 295 294 294 293 293 293 292
295 296 295 296 298 297 296 296 297 298 297 297 297 297 297 297 297 295 294 294 296 296 297 298 299 298 296 297 297 297 297 297 297 297 297 297 297 296 296 295 296 296 295 295 295 295 295 295 295 296 296 297 298 299 300 300 300 298 297 297 298 297 297 297 297 297 297 297 297 297 296 296 297 297 297 296 296 296 295 295 294 293 293 293 292 292 292
295 295 295 296 297 298 298 297 297 298 298 298 299 299 298 297 296 295 294 294 295 297 298 298 298 297 296 296 297 297 297 298 297 297 297 297 297 296 296 296 296 296 296 296 295 295 295 295 294 295 296 297 298 298 298 299 299 298 297 297 297 297 297 297 297 297 297 297 297 296 296 296 296 297 297 296 296 295 295 294 293 293 292 292 292 291 291
294 295 295 296 296 297 298 298 298 298 298 299 299 299 297 296 296 295 294 293 295 297 299 299 298 298 297 297 298 298 297 297 297 297 296 297 297 296 296 296 295 295 296 296 295 295 295 295 295 296 297 296 295 296 297 298 297 296 297 297 297 297 297 297 297 297 297 296 296 296 296 296 296 296 296 296 295 295 294 292 292 291 291 291 291 290 291
294 295 295 296 297 298 298 299 299 299 299 299 298 297 296 296 295 294 294 294 294 296 298 298 298 298 299 300 300 299 297 297 297 297 296 296 297 296 296 295 295 295 296 296 295 294 294 294 295 297 296 295 295 297 298 298 296 296 297 297 297 297 297 297 296 296 296 296 296 296 296 296 296 296 296 295 295 294 292 291 290 290 290 290 291 291 291
294 294 295 296 297 298 299 299 300 299 299 299 298 297 297 296 295 294 294 295 294 295 296 297 297 297 298 299 299 297 297 297 297 296 296 297 297 296 296 295 295 296 295 295 294 294 295 295 296 296 294 295 297 299 298 296 296 296 297 297 297 297 297 296 295 296 296 296 296 296 296 296 296 296 295 295 294 293 292 291 290 289 289 290 290 290 290
294 294 295 295 297 298 299 300 300 300 299 299 298 297 297 297 296 295 295 295 295 295 296 297 297 296 296 298 298 296 297 298 297 297 297 297 296 296 296 296 296 295 295 295 296 296 296 295 295 296 296 297 298 297 296 296 297 297 296 297 297 297 296 295 295 296 296 296 296 296 296 296 295 295 294 294 293 293 292 291 291 290 289 289 290 290 290
294 294 294 295 296 297 299 299 299 299 299 299 297 297 297 297 297 297 297 297 298 298 297 297 297 297 296 297 297 297 298 297 296 297 297 297 296 296 296 296 295 294 295 297 297 295 295 297 297 296 297 297 296 296 296 296 296 297 297 297 297 297 295 295 295 296 296 296 296 296 295 295 295 295 294 293 293 293 293 292 292 291 290 290 289 289 290
294 294 295 295 296 297 298 299 298 298 298 298 297 297 298 298 298 298 298 299 299 299 298 298 298 297 297 297 297 297 297 297 297 297 297 296 297 297 296 296 295 294 295 297 296 293 295 298 297 296 297 296 295 295 297 296 296 297 297 297 297 296 295 294 295 295 295 296 296 296 295 295 295 294 294 294 293 293 293 293 292 291 291 290 290 290 290
294 294 294 295 295 296 296 297 297 297 297 297 297 297 298 298 298 298 298 299 299 298 298 298 298 298 297 297 297 297 297 297 297 298 298 297 296 295 295 295 295 294 295 296 295 293 295 296 295 295 298 299 296 295 296 297 296 297 297 297 297 296 295 294 294 295 295 296 295 295 295 294 294 294 294 294 293 293 293 293 292 291 291 290 290 290 290
294 295 295 295 295 296 296 296 296 296 297 297 297 297 297 297 297 296 297 298 299 299 298 297 298 297 297 297 297 297 298 298 297 297 297 297 296 295 295 295 294 293 295 296 295 294 296 296 295 296 298 298 296 296 297 297 297 297 297 297 296 295 295 294 294 295 296 295 295 294 294 294 293 293 293 293 292 292 292 292 292 291 291 290 290 289 289
295 295 296 296 296 296 297 297 297 297 297 297 297 297 296 297 297 296 296 297 298 298 297 297 297 297 297 297 297 297 297 297 296 296 296 296 295 295 296 296 294 294 296 296 295 295 295 294 296 298 298 295 295 296 297 296 297 297 297 296 296 295 295 295 295 295 296 295 294 294 294 294 293 293 292 292 291 292 291 291 291 291 291 290 289 289 289
296 296 296 297 297 297 297 297 297 297 298 297 297 296 297 297 297 297 297 297 297 297 296 297 297 297 297 297 297 297 297 297 296 296 296 296 296 296 296 296 295 295 296 296 295 296 295 295 298 300 298 295 295 296 297 296 297 297 296 296 296 295 295 295 295 295 295 295 294 294 294 294 293 293 292 292 292 291 291 292 291 291 291 290 289 289 289
296 296 296 296 297 296 297 297 297 297 297 297 297 296 297 297 297 297 298 298 298 298 297 297 296 297 298 297 296 296 296 296 296 296 295 295 296 296 296 297 296 294 294 296 297 295 295 297 298 298 295 294 295 296 296 296 297 296 296 296 296 296 295 295 295 295 295 295 295 294 294 294 293 292 292 293 292 292 292 292 291 291 291 290 289 288 288
296 296 295 296 296 296 295 296 297 297 297 298 297 297 296 297 297 298 298 298 298 297 298 297 297 297 298 297 296 296 296 295 296 296 294 294 295 295 296 297 297 294 293 296 297 295 295 298 298 295 294 295 295 294 296 297 297 296 296 296 296 296 295 295 295 295 295 295 295 295 295 294 294 292 292 293 292 292 292 292 291 291 291 290 289 288 288
296 295 295 295 296 296 295 296 298 297 297 296 296 296 296 296 296 297 297 297 297 297 297 297 297 297 297 296 296 296 296 295 295 295 295 295 296 297 295 295 296 295 295 296 296 296 298 298 296 293 294 295 294 294 296 297 296 296 296 295 295 295 295 295 295 296 295 295 295 295 295 294 293 293 293 293 293 292 292 292 291 291 290 290 289 288 287
295 294 294 296 298 297 296 297 297 297 295 295 295 295 296 296 296 296 296 297 297 297 297 297 297 297 297 297 296 296 296 295 296 296 295 295 296 297 296 295 295 296 296 295 296 299 300 297 294 294 295 296 295 295 296 296 296 295 295 295 295 295 295 295 295 295 295 295 295 294 294 294 293 293 293 293 293 293 292 292 291 291 290 290 288 287 286
295 294 295 298 298 297 296 296 296 295 295 295 296 295 296 296 296 296 297 297 297 297 297 297 297 297 297 296 296 295 295 295 296 296 296 296 296 296 297 297 296 296 296 296 298 301 300 296 294 295 296 295 295 296 296 296 296 295 295 294 295 295 295 295 295 295 295 296 295 295 294 294 293 293 294 294 293 293 293 292 291 291 291 290 288 286 286
295 295 295 296 296 295 295 295 295 295 295 296 296 295 296 296 295 296 297 296 296 297 297 297 297 297 297 296 295 295 295 295 296 296 296 296 296 297 297 297 296 296 297 297 296 297 296 295 294 295 296 295 295 296 296 296 296 295 294 294 294 294 295 295 295 295 295 296 296 295 295 294 294 294 294 294 294 294 293 292 291 291 291 290 288 286 286
295 295 295 295 295 295 295 295 295 295 295 295 295 295 295 295 295 296 296 296 296 296 296 296 296 296 296 295 296 296 296 296 296 296 296 296 296 296 296 296 297 299 299 296 294 294 295 295 295 295 295 295 295 295 296 296 295 294 294 294 294 294 294 294 294 294 295 295 296 296 296 295 295 294 294 294 294 294 294 293 292 291 291 290 288 286 286
295 295 295 295 296 296 295 295 296 296 295 295 295 296 295 295 295 296 296 296 296 296 296 297 297 296 296 296 296 296 295 295 295 296 297 297 296 296 296 297 297 297 297 296 294 294 295 295 295 295 296 295 295 295 295 295 295 295 295 294 294 293 294 294 294 295 295 295 295 296 296 296 295 295 294 295 295 295 294 293 292 292 292 290 288 287 287
295 295 295 295 295 296 295 295 295 295 295 295 296 296 295 295 295 295 295 296 296 296 296 296 296 296 296 296 296 295 295 295 295 295 296 296 295 295 297 298 297 295 295 295 295 295 295 295 295 296 296 295 295 295 295 295 295 295 295 294 294 294 294 294 294 294 295 295 295 296 296 296 296 296 295 295 295 295 295 294 292 292 292 291 289 288 288
Wind_Speed
25 27 28 30 31 31 31 31 30 31 30 26 23 18 15 10 4 12 15 6 16 6 2 2 2 1 2 2 4 4 3 2 2 4 3 3 5 4 3 4 4 3 2 1 2 3 2 1 3 4 1 2 1 3 5 7 5 4 2 2 1 2 3 3 1 3 3 4 5 4 3 5 6 3 2 2 1 1 4 5 4 3 3 2 4 1 5
24 26 28 30 31 31 31 31 29 29 30 27 22 16 13 10 5 14 17 6 13 2 2 0 2 3 4 4 3 5 5 5 6 4 1 3 3 2 1 2 2 1 1 3 3 2 2 1 0 3 3 1 2 1 6 7 3 2 2 2 0 1 1 3 3 1 3 4 5 5 5 4 3 2 5 3 3 3 2 1 3 3 3 4 5 2 5
25 26 28 30 31 31 31 32 29 29 28 25 19 14 11 8 4 11 20 14 8 5 3 1 2 2 3 4 5 4 4 4 4 2 2 5 3 1 2 4 4 4 4 5 5 5 3 2 2 2 1 2 4 3 6 9 5 3 4 4 2 2 2 3 4 4 4 2 2 2 1 2 2 2 5 5 4 5 2 2 4 2 2 3 5 4 4
25 26 28 30 31 31 31 31 30 29 28 23 15 11 9 6 3 6 12 20 19 12 9 7 3 2 1 1 3 4 3 4 7 6 6 7 7 6 5 5 4 5 5 5 6 7 5 3 3 4 4 2 4 6 7 7 6 9 10 8 6 4 2 2 4 4 5 5 4 3 3 3 1 2 4 5 3 4 4 4 3 3 3 3 1 3 2
24 26 28 29 31 32 31 31 30 29 27 20 11 11 10 5 3 4 4 9 13 12 15 15 7 4 3 1 3 6 3 3 8 9 6 8 8 6 7 8 5 3 3 4 4 6 6 6 4 4 4 3 4 9 12 9 7 6 7 6 6 5 3 2 4 4 1 3 2 2 4 5 2 1 4 5 5 5 6 4 2 4 5 2 2 1 5
24 25 27 29 31 31 31 31 30 28 26 18 11 14 13 6 3 6 4 2 3 5 10 13 8 8 8 3 1 6 7 6 6 5 5 9 10 5 5 10 8 4 2 4 3 5 4 6 5 3 4 3 5 7 7 8 10 6 4 4 4 5 1 1 4 5 4 3 4 6 7 6 4 4 3 4 5 6 5 2 1 4 6 4 3 5 5
23 24 26 28 30 31 31 31 29 27 22 16 16 17 13 7 5 7 8 5 3 3 4 6 8 11 9 5 4 7 9 8 5 4 3 6 10 7 4 6 9 8 6 5 3 3 3 3 4 3 4 4 3 4 3 7 12 8 4 3 3 4 1 1 3 5 5 4 4 8 9 6 5 5 5 4 6 7 6 3 4 8 8 5 7 10 6
23 23 24 26 29 30 30 30 29 27 21 16 20 21 14 9 6 7 7 7 9 10 7 5 7 9 9 6 7 8 8 8 6 6 6 3 5 6 5 3 5 7 9 8 5 1 2 2 1 1 2 3 3 3 1 3 9 7 3 2 2 3 2 1 3 4 3 4 5 8 10 8 7 6 6 5 7 7 7 4 4 8 8 5 8 10 6
22 23 23 25 26 28 29 29 28 29 23 19 22 22 15 10 8 7 4 5 9 11 8 5 5 5 7 6 6 7 8 8 5 6 10 8 3 3 2 1 3 5 9 9 4 2 2 4 7 5 3 3 2 2 1 1 5 5 3 2 2 3 2 1 4 4 0 1 4 7 9 10 9 6 6 5 6 5 4 4 4 4 6 6 8 7 1
22 22 22 23 24 25 27 27 27 28 25 22 22 21 15 11 10 7 3 4 9 9 5 6 5 3 4 6 7 8 9 11 7 4 8 12 10 6 3 1 2 5 7 7 6 8 8 8 12 12 10 10 10 8 6 4 2 2 2 2 2 3 4 2 3 4 2 2 1 4 5 7 4 2 2 3 5 6 6 6 7 4 5 5 5 3 2
22 22 21 22 23 23 24 25 25 26 26 24 22 20 17 13 11 9 5 4 8 10 5 5 5 3 3 5 7 9 10 13 11 5 3 7 12 14 11 7 4 4 5 9 10 11 10 10 12 13 11 11 10 8 6 5 3 3 0 2 2 3 5 3 2 4 3 5 3 3 3 2 2 4 2 3 5 9 10 6 6 6 5 4 4 3 2
21 21 21 21 21 21 22 22 23 24 24 22 19 16 15 12 11 11 8 5 5 9 5 5 5 4 5 6 5 5 6 7 10 10 6 5 12 18 17 11 5 2 8 14 13 9 7 6 6 7 6 7 6 3 1 3 4 3 2 3 3 3 4 3 2 4 2 2 5 4 1 3 1 3 3 4 7 13 15 9 6 7 6 6 6 5 3
20 20 20 20 20 20 21 20 20 21 20 19 17 15 13 11 10 10 9 6 3 5 2 3 9 11 12 11 7 5 7 9 11 13 11 8 11 16 17 12 7 7 11 12 9 6 3 3 3 3 4 5 5 4 1 2 5 4 3 2 3 5 3 3 2 3 2 1 3 2 3 1 2 4 3 3 3 6 11 9 7 6 4 3 5 4 3
20 20 19 19 19 19 19 19 19 19 18 18 17 14 11 10 10 11 10 7 3 5 4 2 8 12 11 12 9 7 10 14 12 10 10 10 9 12 17 17 14 12 10 7 5 4 2 1 3 3 3 4 4 3 2 2 6 7 7 6 2 6 3 2 2 2 3 3 2 1 1 1 1 2 2 2 2 1 4 5 2 3 4 3 2 3 5
19 19 19 18 18 18 18 18 18 17 17 16 14 12 11 10 10 9 9 6 4 7 10 5 5 6 5 9 10 6 6 8 8 6 7 10 10 11 15 18 17 14 10 5 3 2 2 2 3 1 2 1 0 2 2 2 3 4 6 6 3 4 3 4 4 2 3 5 3 2 1 3 5 5 4 2 4 4 3 6 2 3 5 3 3 4 6
18 18 18 17 17 17 17 17 17 17 17 15 12 11 11 11 11 11 11 9 5 3 8 7 4 3 3 6 9 7 3 4 4 4 5 8 12 14 14 15 15 15 12 7 4 3 3 2 2 2 1 1 1 1 2 2 3 4 6 7 8 6 3 3 4 2 3 5 4 3 3 4 4 6 6 9 8 4 3 5 1 3 4 5 7 7 8
17 17 17 16 16 17 16 17 17 16 16 14 12 11 10 10 12 12 15 18 13 6 7 10 10 10 7 5 6 7 5 4 3 2 2 4 9 14 15 15 15 17 15 7 2 4 4 2 2 2 0 1 0 1 1 2 2 5 6 6 8 6 4 3 3 3 3 4 3 2 3 2 2 5 7 13 7 4 5 2 3 3 2 7 10 10 10
16 16 16 15 16 16 15 15 16 16 15 13 11 10 10 9 9 9 12 16 13 8 11 13 13 12 9 6 6 6 5 5 3 1 2 2 4 10 14 13 13 15 13 7 2 3 4 2 2 2 0 3 2 1 1 2 2 3 4 3 4 4 3 2 3 3 2 4 4 1 2 2 3 5 10 14 4 7 4 3 6 4 5 7 10 10 8
15 15 15 15 15 15 14 13 14 16 16 13 10 9 9 10 10 10 13 16 13 10 12 14 14 14 12 11 12 11 9 7 6 3 1 3 7 9 7 6 9 10 9 6 3 3 3 2 2 1 1 3 2 1 1 2 1 2 2 3 3 2 3 3 2 2 3 3 3 1 1 2 7 7 10 12 3 5 3 3 6 7 7 7 8 7 6
14 14 14 14 14 15 14 12 12 14 16 15 12 8 7 9 10 11 13 15 13 11 11 12 13 14 14 14 15 15 13 11 9 5 2 2 10 9 2 2 8 9 7 5 3 2 2 1 2 1 1 2 2 1 2 2 2 2 2 1 2 2 2 2 2 2 2 3 3 3 2 5 11 8 6 8 3 4 4 6 6 6 7 7 6 5 4
13 13 13 13 13 14 14 12 11 13 15 16 13 7 4 5 8 10 10 10 9 9 10 10 11 12 12 13 15 16 15 12 9 7 4 5 10 7 3 2 5 5 2 2 2 1 1 0 1 1 1 1 2 1 1 2 3 3 2 2 2 2 1 1 1 1 2 2 2 2 2 5 9 7 5 5 6 7 7 6 5 4 5 4 3 3 2
12 12 12 12 12 13 13 12 10 11 14 17 14 9 4 5 7 8 8 9 9 9 9 10 12 12 11 10 12 15 15 12 11 10 9 9 11 10 6 2 5 5 3 3 2 1 1 1 0 1 1 1 2 2 2 2 1 4 3 2 2 3 3 4 2 2 3 3 3 3 1 6 13 16 12 10 10 9 6 5 3 3 2 2 2 2 3
11 11 11 11 12 12 12 10 9 10 13 15 16 13 9 5 6 6 7 8 11 10 8 7 8 10 10 9 10 12 12 11 11 12 11 8 8 9 8 7 6 5 4 5 3 1 1 1 1 1 1 1 1 2 3 3 1 2 2 2 2 4 8 8 5 4 5 7 6 5 6 10 13 13 11 9 8 6 4 2 2 2 2 3 4 5 7
11 11 10 10 10 10 10 9 7 8 10 13 15 15 10 6 4 4 4 5 7 7 5 5 7 8 9 8 7 9 10 9 8 10 12 10 6 5 6 6 5 4 5 6 4 1 1 0 0 2 1 0 1 2 3 2 1 1 2 2 3 2 5 5 4 4 4 4 5 5 7 9 10 9 8 7 5 3 2 2 2 2 3 5 6 7 9
10 10 9 9 10 9 9 8 6 6 8 10 13 13 10 8 6 5 4 4 5 4 3 4 6 7 6 5 5 6 7 7 7 8 8 10 9 5 5 6 6 4 5 6 4 3 3 2 2 2 2 0 1 1 1 1 1 1 2 0 2 2 4 4 4 2 2 2 4 6 9 9 7 7 7 6 4 2 1 2 3 4 5 7 8 9 11
10 9 8 8 9 9 8 6 5 5 5 8 11 12 12 11 9 7 6 5 5 4 2 1 3 5 5 5 6 5 4 4 7 7 6 8 9 8 6 6 6 5 5 5 5 5 5 3 2 2 1 0 1 1 2 1 1 2 2 1 2 2 2 2 3 3 3 1 1 5 7 4 4 7 7 5 3 1 2 2 3 5 6 7 8 9 10
8 8 7 8 10 10 7 5 4 3 3 5 8 10 11 11 10 9 7 5 3 2 1 1 2 3 4 5 5 5 4 3 5 7 5 5 6 6 6 6 5 5 5 6 5 5 5 3 2 1 0 0 1 1 1 1 2 2 1 3 3 2 1 2 4 4 1 3 3 5 4 3 4 7 5 2 0 1 3 3 4 5 5 5 7 7 9
8 7 6 8 10 9 6 4 4 2 1 3 5 6 8 10 11 10 8 6 4 2 1 3 4 4 3 4 4 4 5 4 4 5 5 3 3 4 6 6 4 3 4 5 4 3 3 3 1 1 1 1 1 1 1 2 3 2 1 4 3 3 2 2 4 4 4 4 5 5 3 3 4 4 2 1 2 3 3 3 2 3 3 4 6 8 10
7 6 5 7 9 9 5 3 4 4 2 2 3 3 4 8 10 10 7 6 6 5 4 4 3 3 2 3 3 4 5 5 5 4 4 3 2 3 6 7 3 0 2 3 2 1 1 1 0 1 1 1 1 1 1 2 2 0 2 2 2 4 3 4 6 5 4 5 6 5 3 3 2 1 2 2 3 3 3 2 3 4 5 7 8 11 13
6 5 5 6 8 8 4 2 3 4 4 2 2 2 3 5 8 9 7 6 5 5 4 3 2 1 2 3 3 3 3 4 4 4 3 3 3 4 6 6 2 1 1 2 1 1 1 2 1 1 1 1 1 1 1 2 1 2 4 3 6 7 6 6 6 4 4 7 7 4 3 3 2 2 3 4 4 3 3 4 4 6 8 10 12 14 15
6 5 5 4 5 6 4 1 2 3 4 4 3 3 2 3 6 8 7 6 4 4 4 3 2 2 2 3 3 2 3 4 5 5 5 5 5 5 6 4 0 2 1 1 1 1 1 1 1 2 0 1 2 2 2 3 1 2 4 7 9 8 7 7 6 5 5 6 6 4 3 3 1 2 3 4 4 4 4 5 6 8 10 12 14 15 15
7 6 6 4 3 4 3 1 1 2 3 5 5 4 3 6 8 8 6 5 4 4 4 3 2 2 2 3 3 3 5 5 5 5 6 5 4 4 5 2 2 2 2 1 1 1 1 1 1 1 1 1 1 2 3 3 2 5 8 10 10 8 7 6 6 5 4 4 4 4 4 4 3 4 4 4 4 4 6 8 10 10 10 11 12 14 15
9 8 7 6 4 3 3 3 2 1 1 3 4 5 6 9 10 8 5 3 3 3 3 2 1 1 2 3 2 3 5 5 4 5 7 4 2 3 4 2 3 4 3 2 1 1 1 1 1 1 1 1 2 2 2 2 5 9 12 12 10 9 8 7 6 5 5 4 4 4 5 5 4 4 3 4 4 5 9 12 12 11 10 11 13 15 16
10 9 8 7 6 4 4 4 4 3 2 1 3 6 8 9 9 7 4 3 2 2 2 1 1 1 2 2 1 1 5 6 4 5 5 3 3 5 3 2 2 2 2 2 2 2 2 2 2 2 1 1 2 2 1 4 8 12 14 12 10 10 10 8 7 7 7 6 5 5 4 3 3 4 4 4 4 7 10 11 10 9 10 12 13 13 14
10 9 8 7 6 6 6 6 5 5 5 4 4 6 8 8 7 5 3 2 1 1 0 0 0 0 2 2 1 2 4 5 4 5 4 4 5 5 3 2 2 1 2 2 2 1 1 2 3 2 1 0 1 1 4 7 10 14 15 14 13 12 10 8 8 8 6 5 4 4 3 3 4 5 5 3 4 7 9 8 7 9 12 12 10 11 11
8 9 9 8 7 7 7 7 6 6 6 4 5 7 8 8 6 4 4 3 2 1 1 0 1 2 2 1 2 3 3 4 5 5 5 4 4 4 2 0 1 1 1 1 1 1 2 4 4 1 1 1 2 5 8 10 15 18 19 17 16 13 9 8 8 7 6 4 4 4 4 4 5 5 3 3 5 6 7 7 6 8 11 11 10 11 12
8 8 9 9 8 8 7 7 7 7 5 4 7 10 10 7 4 4 5 4 3 3 3 1 1 3 3 2 2 2 2 3 4 5 4 4 4 3 1 0 1 2 1 1 1 1 3 4 3 1 2 3 5 7 9 11 16 19 19 17 15 12 9 7 6 6 5 5 5 5 5 6 6 5 2 3 4 5 6 7 7 8 9 10 11 12 13
7 8 9 9 8 6 5 6 6 6 4 6 9 9 7 4 2 2 3 3 3 4 4 3 3 4 4 3 2 2 2 2 2 2 2 3 3 3 2 1 1 1 1 2 3 1 1 1 1 1 3 5 7 9 10 11 15 18 16 14 13 10 7 6 6 6 6 6 6 7 8 8 8 6 3 3 3 4 6 7 8 8 8 10 11 12 13
6 5 6 7 6 5 5 6 8 8 7 8 7 4 2 1 1 1 1 2 2 3 4 4 5 6 6 4 2 4 3 1 2 1 1 2 1 1 2 2 1 1 2 2 2 1 1 2 2 1 3 5 6 8 9 7 10 13 13 11 8 6 4 4 5 6 6 6 6 7 7 8 7 5 3 2 2 4 7 8 8 8 8 9 10 11 13
5 4 3 4 5 5 7 10 11 10 7 5 3 1 1 1 1 1 1 1 1 2 4 4 5 5 7 6 4 4 4 2 1 1 1 1 1 0 1 1 0 1 1 2 2 1 1 1 2 1 2 5 6 6 5 5 9 11 10 8 6 4 4 3 4 5 6 6 5 5 5 5 4 3 3 3 3 4 7 8 8 7 8 9 9 10 12
6 5 4 4 5 5 6 6 5 4 2 0 0 1 1 1 2 2 1 1 1 3 4 4 3 4 7 8 6 4 4 4 3 2 1 1 1 1 1 1 1 2 1 3 3 2 2 0 2 1 4 6 7 6 9 10 10 9 8 7 5 4 3 4 4 4 5 5 4 4 5 4 2 2 3 4 4 5 6 7 6 6 7 8 9 10 11
7 6 6 5 4 4 4 2 2 2 1 1 1 1 1 1 2 2 0 1 2 3 3 4 3 2 4 6 5 3 3 4 4 2 1 1 2 2 1 1 1 1 2 4 1 3 2 1 2 4 6 8 7 8 13 12 11 10 8 6 5 4 4 5 4 4 4 4 3 4 5 3 2 2 3 3 4 5 6 6 6 7 7 8 9 9 10
6 6 6 6 4 4 4 2 2 2 1 2 2 2 2 2 2 1 1 3 4 4 2 2 3 2 3 4 3 2 3 4 4 2 1 1 2 1 2 2 1 1 2 1 2 3 0 2 3 5 6 9 7 9 15 14 11 10 8 7 6 5 5 5 5 4 5 5 4 4 5 4 3 3 3 3 4 5 6 7 8 8 8 9 9 8 8
5 5 5 4 3 4 3 2 1 2 1 1 1 2 1 3 2 1 2 4 5 5 5 4 2 2 2 2 2 2 3 3 3 2 2 2 1 1 1 1 2 2 1 2 2 0 2 3 4 5 7 10 10 9 14 16 13 11 10 9 8 7 6 6 6 5 6 7 7 6 5 5 5 4 4 5 6 6 8 9 9 9 9 9 8 7 7
5 5 4 3 3 3 2 1 1 1 0 0 1 2 2 2 2 3 3 6 7 6 6 4 2 3 3 2 2 3 3 2 1 2 1 0 1 0 1 2 1 0 2 1 1 1 2 3 4 7 10 12 14 11 11 16 16 13 12 11 10 9 8 7 7 7 7 9 9 9 8 7 7 6 5 5 6 7 8 9 9 9 9 9 8 7 6
5 5 4 2 2 3 2 1 0 1 1 2 1 1 2 3 4 5 6 9 9 8 6 4 3 3 4 2 1 2 2 1 1 1 1 2 1 2 2 1 1 1 2 1 2 2 3 5 7 10 12 13 12 8 8 15 15 14 13 13 12 11 9 8 8 8 8 8 10 11 10 9 8 7 6 6 7 8 8 8 8 9 9 9 9 7 6
4 4 4 1 1 2 1 1 1 1 1 1 1 3 3 5 8 9 9 10 10 9 7 4 2 3 4 3 2 3 3 3 1 1 1 2 0 1 0 2 0 1 1 1 3 4 4 6 8 10 12 13 11 6 7 14 16 14 13 13 12 12 12 10 10 9 8 8 9 10 10 9 9 8 7 7 7 8 8 7 7 8 8 9 9 8 7
3 3 2 1 1 1 1 1 2 4 5 5 6 6 6 8 10 10 9 9 9 10 9 7 4 3 4 4 4 3 3 3 2 2 1 2 1 1 1 1 2 2 2 3 5 5 4 6 7 6 8 10 10 8 7 14 17 15 13 13 14 14 14 13 11 10 8 9 10 10 9 9 9 8 7 7 7 8 8 7 7 7 8 9 10 9 7
3 2 1 1 2 3 4 4 5 7 8 9 9 8 8 10 11 10 10 11 8 6 7 6 4 2 2 2 1 1 1 1 1 1 0 1 0 0 1 1 2 3 3 3 5 5 7 8 7 5 6 7 7 6 7 12 15 14 14 15 15 15 15 14 12 10 9 10 10 10 9 9 9 9 9 9 8 8 8 8 8 7 8 10 10 9 6
2 2 3 3 2 3 4 4 4 4 6 8 11 12 12 13 12 9 9 12 12 8 5 4 4 2 1 1 1 1 2 2 2 1 1 1 2 2 1 2 3 4 4 5 6 7 9 9 6 5 7 8 7 7 8 11 14 15 16 16 16 15 15 14 12 11 10 10 10 10 10 10 10 10 10 9 9 8 8 9 9 8 8 9 9 7 5
1 3 5 6 6 5 5 4 4 5 8 12 15 15 14 14 14 12 10 11 11 8 4 3 2 0 1 0 1 1 1 2 2 1 1 2 3 3 2 3 5 6 7 9 9 9 9 7 5 5 6 7 8 9 11 13 15 17 17 16 16 15 14 13 12 12 11 10 10 11 11 10 10 11 11 10 10 10 10 10 10 9 7 7 7 6 4
4 4 5 7 10 11 11 11 11 13 15 18 19 17 16 16 16 14 13 12 10 8 6 5 2 2 1 1 2 1 0 1 1 1 2 3 3 3 4 6 8 9 11 13 13 10 7 5 5 7 8 9 8 9 10 13 17 18 18 17 17 16 15 15 15 14 13 12 12 12 11 10 10 10 11 12 13 12 11 11 11 10 8 7 7 7 5
Wind_Direction
357 357 358 358 359 359 357 356 357 355 354 358 0 358 357 353 10 21 17 155 168 140 60 347 8 178 274 270 220 229 237 237 273 270 272 250 232 234 232 229 210 198 228 206 118 107 105 181 169 156 215 293 212 170 118 87 69 79 94 276 291 75 85 85 17 310 318 318 330 360 52 72 68 35 25 78 50 87 140 172 175 129 140 132 86 82 260
360 0 360 360 2 2 359 358 0 0 358 357 357 354 352 347 5 34 36 145 188 192 25 43 321 299 322 328 277 251 231 235 247 244 334 336 270 265 319 306 338 4 90 64 45 58 84 24 23 143 154 322 299 177 99 89 66 56 125 181 41 33 99 102 93 30 352 349 340 347 4 32 59 346 332 4 47 60 96 115 78 104 174 151 113 173 251
4 3 2 2 3 4 3 1 2 4 3 359 357 356 356 355 17 35 38 61 100 75 60 193 274 306 323 304 297 289 257 268 266 200 68 17 2 34 338 321 342 9 56 55 14 17 70 63 14 31 47 15 346 354 92 103 109 116 118 120 105 101 113 108 125 158 174 190 252 256 287 358 19 338 340 1 34 45 65 86 73 108 177 119 120 184 238
6 5 4 4 5 7 7 5 4 7 8 3 4 16 18 20 25 9 27 45 49 43 36 26 350 307 300 252 331 344 306 337 18 65 70 22 29 50 9 337 357 21 42 63 23 6 16 43 56 30 2 344 343 12 61 79 91 113 99 76 82 89 56 82 121 145 172 183 207 211 144 91 65 315 345 352 5 47 82 88 99 161 137 67 69 179 119
8 7 6 5 6 8 10 10 8 10 11 7 15 43 47 53 25 348 5 31 25 20 19 15 356 328 8 104 4 355 338 352 19 40 43 16 24 49 27 15 30 17 28 88 54 354 352 23 43 19 349 293 313 26 55 48 36 96 94 62 89 92 34 63 84 61 105 162 133 87 89 93 100 38 1 346 353 47 81 94 135 143 115 78 296 105 97
9 9 7 6 7 9 12 14 13 14 16 17 44 59 51 56 34 13 33 32 355 19 12 357 352 6 15 47 32 13 27 36 19 5 13 22 23 38 34 19 20 13 38 114 67 359 6 21 7 348 354 330 331 15 45 25 12 44 66 34 95 110 87 157 93 60 48 76 96 97 90 81 65 51 29 3 17 59 91 104 36 105 122 153 156 98 87
10 11 10 9 9 10 13 16 18 21 22 29 59 64 46 47 51 23 42 60 13 26 12 356 18 20 10 20 31 22 30 36 22 351 1 22 15 33 69 15 9 22 42 90 82 18 43 34 353 346 351 338 352 12 2 353 4 26 57 29 73 111 147 197 119 93 65 58 99 107 98 88 56 34 27 49 65 72 77 62 56 82 97 122 114 91 70
11 12 13 11 10 11 14 17 20 24 25 36 57 58 42 41 37 6 30 48 18 14 19 32 45 24 7 14 15 13 23 25 21 23 40 37 354 24 78 44 19 40 46 69 94 84 123 118 306 325 10 351 18 37 345 328 347 2 40 12 25 97 149 193 99 87 46 32 78 96 99 101 83 42 16 46 70 57 45 35 51 78 88 96 95 84 56
12 13 15 15 13 13 14 17 21 23 26 39 51 51 44 45 39 12 25 31 4 4 9 28 67 36 6 4 360 1 7 3 9 40 44 53 42 20 73 76 29 43 44 57 70 276 217 213 249 247 229 267 280 279 270 350 346 349 11 356 5 73 112 65 67 93 192 12 89 109 103 91 76 41 6 22 59 65 54 30 23 96 126 107 81 82 30
14 13 16 17 16 16 15 18 22 22 26 35 42 42 41 46 47 38 71 52 8 2 5 22 54 60 357 354 0 2 359 1 21 68 41 38 40 29 29 71 44 38 33 28 350 318 302 278 283 284 270 264 264 264 277 300 316 317 1 27 32 84 117 115 86 119 219 301 106 134 102 76 52 331 341 54 92 106 92 47 25 47 117 115 103 131 222
15 14 17 18 19 18 17 19 22 23 26 30 33 35 34 39 44 37 66 79 6 356 12 31 36 35 357 1 10 9 5 6 17 50 51 28 30 28 24 32 60 65 8 344 330 321 314 302 301 300 287 276 273 273 281 290 271 248 51 65 45 65 101 126 115 126 216 286 347 59 70 115 242 273 257 166 132 110 95 62 27 31 60 98 113 108 48
16 15 16 18 19 19 18 19 22 25 27 26 29 34 32 35 46 43 60 93 4 356 30 44 24 18 14 27 38 15 4 4 13 33 50 27 27 31 28 29 50 23 339 338 334 327 319 316 312 304 300 297 297 296 261 283 288 263 176 119 111 81 89 119 98 106 164 308 30 51 246 214 218 360 50 119 119 105 96 78 39 35 51 73 73 57 35
17 16 17 18 19 19 18 18 20 24 28 24 24 34 37 39 55 58 65 87 26 352 29 32 18 25 26 25 25 4 11 22 28 39 44 24 20 27 25 19 6 342 339 339 342 350 345 343 355 332 314 330 346 348 293 320 351 8 17 41 123 127 118 132 107 102 145 84 68 140 225 248 38 8 36 113 110 89 86 65 22 13 26 61 72 55 24
17 16 17 18 19 20 18 17 18 21 26 25 21 30 43 48 60 67 68 85 66 11 32 28 3 15 23 18 9 2 12 18 21 32 33 21 14 13 11 12 8 359 354 344 346 25 70 41 20 360 333 357 12 336 298 25 38 39 13 352 131 136 126 131 126 134 142 116 100 123 44 56 167 274 258 186 277 320 105 98 33 353 2 18 71 53 34
17 16 18 19 21 22 19 19 18 15 20 25 23 32 50 55 61 68 69 96 117 35 33 28 319 328 2 16 17 18 10 5 2 1 12 19 16 5 6 13 13 11 14 23 23 43 83 80 70 52 344 17 24 291 322 33 29 35 28 15 61 113 147 169 170 190 117 101 99 90 109 214 220 239 263 298 315 284 157 120 94 348 7 42 109 79 51
18 17 18 19 21 23 21 20 18 13 16 23 27 39 57 62 67 76 72 76 101 30 14 18 9 13 35 27 27 34 24 351 346 341 354 5 0 356 6 20 21 15 17 29 44 50 62 88 113 137 196 216 197 264 339 1 325 343 20 34 40 42 56 115 129 152 119 116 135 165 185 220 237 242 276 319 318 266 143 89 51 312 14 77 103 81 56
18 18 18 18 21 22 20 19 19 17 18 22 29 40 54 65 70 78 77 76 81 68 30 37 49 52 51 27 17 24 11 348 354 16 354 336 336 343 357 14 22 19 20 26 32 35 47 52 56 83 172 289 100 137 341 25 4 337 347 13 25 25 22 53 115 160 149 133 139 161 193 228 257 241 293 332 333 161 119 88 243 247 66 83 86 74 57
17 18 17 17 19 20 19 16 15 18 21 21 27 38 52 64 67 72 80 83 83 64 44 50 56 57 57 48 36 32 9 346 350 356 320 316 331 337 344 2 15 14 19 34 54 38 45 29 17 66 24 329 25 99 348 23 26 332 337 12 23 17 13 47 124 126 85 116 114 63 229 260 299 291 331 351 16 142 137 221 214 170 114 92 78 75 66
14 16 17 15 15 16 17 15 12 15 21 22 24 37 54 65 72 80 84 85 86 72 55 59 65 64 63 63 59 54 45 29 25 32 20 347 340 332 334 14 21 8 15 41 57 48 51 9 337 70 58 344 350 77 37 28 14 343 358 30 26 10 360 16 65 46 42 106 108 85 197 325 332 324 351 9 42 172 190 194 162 124 109 93 73 77 75
9 14 14 13 12 13 13 12 11 15 21 23 24 30 44 58 73 84 85 85 87 76 56 57 67 65 60 61 56 49 47 45 39 46 106 318 336 346 21 46 4 359 16 40 35 33 56 7 316 10 61 329 317 51 43 11 13 20 28 37 30 35 35 28 24 20 41 73 73 105 170 331 339 330 345 12 43 161 149 133 120 94 92 87 75 80 76
5 9 12 11 11 11 10 10 10 15 22 25 23 26 48 68 78 85 84 84 85 74 62 68 72 63 59 61 53 44 44 50 46 44 54 17 8 27 125 218 339 354 18 48 46 10 22 299 297 357 34 313 330 35 35 4 1 2 24 102 56 14 44 173 265 353 61 86 69 122 225 334 18 64 98 66 79 112 121 115 100 81 83 79 67 76 62
1 4 8 10 10 9 10 11 10 14 22 26 28 39 73 99 93 86 80 78 83 88 86 82 75 68 67 66 56 47 44 46 45 43 46 46 49 65 92 67 35 34 15 32 63 34 356 21 49 48 37 352 1 15 35 85 50 338 351 60 42 34 102 114 92 47 70 102 119 123 85 54 68 85 100 98 93 98 103 98 88 77 64 18 356 350 330
357 360 3 7 10 10 11 13 13 13 19 26 33 42 59 93 103 89 79 81 91 100 99 85 77 69 59 57 56 45 35 36 42 42 43 50 61 68 66 54 50 47 33 39 60 140 136 125 133 93 65 20 64 45 35 66 84 326 360 43 43 92 107 101 95 102 85 86 111 127 108 94 90 89 93 94 90 89 84 63 41 24 358 334 327 323 319
352 354 358 3 7 10 11 14 16 12 17 27 33 37 49 80 99 90 94 89 86 92 85 62 57 44 30 38 48 31 22 32 42 41 44 46 50 67 68 60 61 62 47 40 31 54 111 138 10 92 93 345 90 84 57 53 28 355 45 3 336 42 85 88 107 133 113 106 144 163 141 128 122 111 108 107 97 88 63 18 1 347 328 319 317 315 313
349 349 353 358 1 6 8 11 14 11 16 29 35 37 52 73 70 63 87 91 75 81 78 42 44 42 35 45 43 15 16 37 34 26 37 42 45 70 93 77 66 56 41 35 32 58 81 61 37 86 111 358 32 104 124 110 141 86 80 121 285 354 43 80 110 109 97 141 173 166 145 137 131 128 132 133 118 94 356 338 326 311 303 302 303 303 303
350 347 346 350 352 355 356 1 9 8 10 25 33 36 45 58 59 57 73 87 79 78 79 12 40 49 46 50 42 16 12 30 15 10 34 50 52 67 79 61 47 37 34 43 53 61 69 73 73 90 115 21 42 124 152 134 112 90 86 240 273 332 12 99 106 74 46 11 188 157 148 145 139 140 145 148 145 182 300 299 288 288 289 288 291 294 298
350 347 344 344 346 348 349 350 354 356 1 20 32 35 35 43 53 55 54 58 63 61 40 341 356 6 18 33 31 13 12 11 354 2 31 54 51 53 47 29 21 21 21 35 55 58 54 59 69 78 205 231 54 68 105 106 90 89 57 320 343 31 103 116 90 91 193 248 189 154 164 215 184 157 155 161 127 317 306 287 277 280 281 283 290 293 295
345 342 337 341 347 351 352 352 355 351 328 3 30 39 30 31 41 45 38 39 47 46 354 327 324 330 7 37 34 21 23 18 357 8 30 33 19 25 20 10 8 8 2 13 42 60 41 50 63 311 300 86 70 13 25 59 62 59 320 314 360 70 145 151 124 144 201 209 177 164 181 205 169 153 164 307 344 330 306 290 291 300 299 303 308 308 306
336 336 329 338 349 355 0 16 22 22 3 349 26 53 37 28 33 33 25 24 32 25 4 353 345 338 349 11 23 27 20 3 356 15 39 32 10 5 3 4 18 138 319 353 49 77 359 351 286 307 345 65 95 325 13 60 74 151 253 263 80 91 108 130 136 138 146 159 166 178 204 204 190 247 303 322 335 322 308 323 336 331 327 326 323 322 320
319 323 317 330 347 354 1 36 50 47 53 47 32 47 46 26 22 19 9 3 7 9 9 14 8 323 303 311 335 6 13 356 353 359 356 347 344 334 336 348 25 148 270 310 353 24 347 329 336 343 304 170 118 98 104 121 150 249 244 184 142 134 134 136 141 147 157 165 169 178 205 221 266 302 299 311 322 316 318 333 332 327 326 324 321 320 319
302 307 302 311 336 348 354 37 96 76 74 72 62 66 66 21 7 2 356 351 358 12 9 349 319 316 317 308 308 314 318 323 330 330 319 313 315 318 320 326 137 172 235 252 240 291 288 274 316 338 279 178 125 104 126 133 138 261 226 175 159 159 154 147 150 157 161 164 165 172 196 219 254 270 272 292 304 308 324 333 327 325 323 319 317 317 316
288 290 288 287 306 334 339 323 152 114 82 68 58 51 27 1 355 353 351 354 10 23 15 354 336 340 344 330 308 305 323 327 322 326 327 316 303 316 320 303 216 233 258 223 197 276 281 236 247 283 266 192 149 90 98 115 158 217 201 178 171 176 174 168 171 172 168 170 177 192 222 248 259 259 267 278 280 295 324 330 322 319 316 314 315 316 316
278 279 281 276 271 294 311 292 250 199 93 55 30 3 349 346 343 340 347 2 18 28 28 29 48 270 316 333 313 311 343 353 346 344 345 330 296 317 323 289 248 256 257 237 229 273 295 244 225 255 261 206 139 92 92 181 207 202 194 185 181 183 185 186 191 199 212 228 240 251 260 263 258 257 262 261 268 302 327 328 322 318 318 317 318 319 322
276 274 278 274 266 275 291 285 269 260 270 339 339 335 343 344 334 328 337 351 4 18 18 24 84 281 314 338 4 343 355 359 353 353 2 352 312 308 300 279 277 261 240 247 257 248 251 237 206 195 219 203 114 87 275 248 218 195 187 185 185 186 187 191 202 220 236 250 265 275 273 262 240 228 232 244 277 320 331 331 330 332 333 330 328 330 333
280 275 278 273 264 272 288 288 272 255 255 279 317 335 345 343 329 319 321 327 342 6 331 270 125 75 340 350 344 342 358 1 347 337 344 337 316 303 280 274 305 264 232 244 242 231 247 216 189 189 241 228 119 185 237 231 210 194 188 188 186 186 190 199 211 226 239 254 269 270 268 262 238 220 223 258 311 335 340 343 351 353 352 350 348 347 348
285 274 274 270 266 274 285 283 265 249 248 272 321 338 339 330 316 303 294 289 287 270 240 198 155 170 160 160 288 308 352 6 346 334 334 331 321 310 293 285 296 265 243 238 240 274 242 201 183 194 329 170 204 234 237 222 207 199 196 197 197 199 212 225 225 226 230 243 256 251 241 240 231 219 236 306 329 342 347 351 357 359 0 2 360 358 358
292 275 270 268 272 280 280 271 259 253 258 292 322 325 318 308 295 282 276 273 268 252 230 208 231 217 191 188 241 281 334 342 332 336 344 342 324 308 294 210 278 305 327 322 316 294 217 192 171 160 221 221 240 256 255 237 221 212 206 204 205 211 223 226 219 217 218 219 227 230 225 223 221 222 267 323 328 335 341 346 351 353 355 357 358 358 359
296 277 269 269 275 276 267 255 251 251 275 314 323 318 307 289 274 270 256 239 243 241 225 219 240 229 200 187 225 256 283 325 351 357 350 346 337 327 344 11 322 339 341 300 292 296 221 182 102 181 241 259 269 272 272 257 234 222 213 206 204 212 223 223 223 225 221 217 220 223 219 217 217 223 258 306 317 325 331 337 342 342 342 348 352 352 352
322 296 274 270 273 264 249 256 263 270 292 314 319 306 277 264 282 263 217 202 223 224 212 224 241 223 199 194 225 238 242 307 37 52 328 350 351 332 359 13 354 27 23 312 299 350 359 328 351 347 285 288 282 277 279 261 219 207 204 199 202 217 237 247 254 253 249 256 262 250 237 232 229 227 248 286 304 319 321 323 329 333 334 338 344 347 347
333 323 292 279 278 270 267 274 278 281 289 305 306 290 303 290 230 206 175 189 252 218 207 225 247 232 217 222 230 220 220 235 250 223 247 277 210 183 42 29 279 44 40 278 291 19 82 287 341 357 267 273 277 266 243 196 181 185 189 194 209 238 259 285 300 285 271 279 281 250 223 217 217 227 265 282 290 312 319 316 317 322 324 327 334 339 339
349 347 340 319 305 301 298 293 287 280 274 280 326 331 343 250 248 253 127 107 276 247 217 215 235 233 220 217 212 204 214 228 225 216 233 254 208 161 80 286 277 64 84 256 286 41 90 54 336 283 251 279 287 247 204 187 185 189 193 203 226 254 283 315 321 297 278 283 270 214 192 182 195 258 282 279 278 305 325 327 320 319 321 323 326 329 329
353 349 347 342 336 342 354 21 99 117 99 77 36 350 313 275 303 310 215 221 282 284 223 210 231 239 208 200 199 197 194 202 208 204 200 242 220 185 163 338 32 64 228 247 312 49 59 347 299 256 273 309 303 234 209 203 201 202 210 226 240 254 288 317 321 296 276 275 249 207 199 205 232 265 287 287 278 293 319 334 333 328 325 323 321 319 318
350 352 356 360 10 21 26 49 97 95 71 66 48 4 338 341 343 326 282 293 315 334 331 262 244 206 167 179 193 183 170 191 214 215 186 209 224 146 71 39 42 196 240 267 52 65 190 227 222 244 292 330 317 241 220 214 210 214 226 236 241 251 276 302 314 297 266 254 239 214 212 226 238 244 263 280 282 287 303 318 326 328 329 327 322 313 307
343 343 346 347 2 24 27 29 59 57 44 63 83 76 19 345 332 304 310 322 324 331 336 321 270 218 192 197 202 191 183 193 216 229 214 219 217 78 73 240 231 235 309 359 46 129 238 232 232 257 298 328 326 278 233 216 213 223 230 227 230 246 264 286 304 294 261 245 237 224 221 237 248 241 245 265 281 290 297 305 314 322 329 330 326 313 302
351 349 355 353 354 9 11 332 358 30 13 201 123 140 185 255 254 237 285 314 309 300 306 309 255 224 231 225 208 214 212 192 193 224 216 121 54 70 220 225 224 43 30 16 329 312 293 257 260 281 298 316 327 311 250 220 218 227 230 228 233 247 260 278 293 287 267 251 241 234 237 250 250 241 245 267 284 291 295 298 305 316 325 330 329 320 307
11 11 22 22 341 356 28 100 357 359 123 145 130 161 220 267 284 285 308 326 321 303 293 295 273 245 246 243 256 278 255 181 167 234 170 99 63 244 211 153 80 43 42 9 297 275 244 244 273 304 316 323 331 320 246 220 219 227 231 234 243 253 260 270 276 276 271 258 244 242 249 252 242 238 254 279 287 286 287 292 300 310 321 330 333 331 321
20 21 35 59 296 335 14 163 230 282 234 200 328 331 331 329 321 312 314 323 321 308 294 283 268 268 265 254 259 269 240 194 191 248 171 124 121 275 114 81 24 213 150 214 250 242 238 259 291 323 341 343 341 320 231 214 217 227 235 241 249 255 258 262 266 268 266 255 243 242 243 236 228 233 256 283 292 288 283 287 301 314 324 333 337 335 328
11 7 20 96 206 259 233 220 297 304 297 301 314 322 331 335 333 331 334 329 310 290 275 262 253 269 264 235 219 233 224 187 194 237 198 134 63 338 24 12 299 232 182 198 216 223 252 280 299 331 349 345 337 318 244 218 219 230 241 246 249 253 255 257 261 267 265 255 247 242 235 226 224 233 251 274 293 295 289 288 299 315 328 336 339 336 332
349 336 265 211 242 256 254 273 303 303 297 303 312 317 325 331 333 342 357 359 344 308 277 263 249 255 279 250 219 258 250 187 178 221 146 98 80 182 148 168 259 254 248 223 208 227 268 290 303 321 323 318 319 305 249 223 224 237 247 249 250 253 255 256 261 267 265 258 254 250 243 234 232 236 246 263 284 296 295 290 293 308 326 335 335 334 334
303 268 238 224 250 278 278 289 301 291 291 305 312 315 321 324 322 329 348 351 346 337 312 275 245 228 270 346 41 340 256 218 177 142 160 197 198 178 181 218 226 225 229 228 228 251 283 299 305 302 300 300 298 283 252 231 230 239 247 250 252 253 253 256 261 264 262 260 260 258 253 245 237 235 240 254 273 288 289 282 282 295 318 328 329 328 335
220 249 243 229 230 250 270 283 285 277 280 293 302 308 311 309 308 314 326 330 331 332 318 276 247 138 55 91 206 229 241 205 162 143 199 215 189 154 166 218 224 227 243 255 263 279 300 306 295 284 289 294 291 280 266 254 251 251 252 254 254 252 251 255 259 258 257 258 259 259 257 252 243 237 239 249 261 270 272 269 268 277 297 314 317 316 321
217 245 251 239 243 255 263 266 270 276 281 287 296 301 301 298 303 311 315 312 308 299 279 260 229 140 136 220 224 213 249 222 181 178 227 235 208 176 191 221 240 253 265 274 285 295 294 277 270 281 287 286 281 274 267 264 265 264 261 258 254 248 248 252 255 254 252 251 252 254 259 258 249 242 242 246 251 256 259 260 262 267 277 291 298 296 296